User: anonymous   Login
Location: Hancock Field Station
(44.9202°N, 120.4259°W)
Time: 08:25:16
(UTC-07:00)
Language:

Cosmos 1707 - Orbit

View from above orbital plane
View from above orbital plane
View from above satellite
View from above satellite

Ground track
Ground track

The orbit data is extracted from the following two-line orbital elements,

1 16326U 85113A   16208.45298105  .00000680  00000-0  37054-4 0  9994
2 16326  82.5121 168.1924 0010768 356.8963   3.2199 15.12730493668090
Epoch (UTC): 26 July 2016 10:52:17
Eccentricity: 0.0010768
inclination: 82.5121°
perigee height: 520 km
apogee height: 535 km
right ascension of ascending node: 168.1924°
argument of perigee: 356.8963°
revolutions per day: 15.12730493
mean anomaly at epoch: 3.2199°
orbit number at epoch: 66809

The dashed part of the orbit path shows where the satellite is in the earth's shadow,  

DLR